Zurück zum Katalog

HOTSAT-2

AktivWissenschaftSSO
NORAD 68465·PAYLOAD·🇬🇧 United Kingdom

Gestartet Mar 30, 2026 von Vandenberg Space Force Base

Loading…

Nächste Überflüge (nächste 24 Stunden)

TLE

AktuellSource: Space-Track

Epoche: Sep 13, 2026, 20:21 UTC

1 68465U 26067BB  26256.84841567  .00002385  00000-0  12065-3 0  9999
2 68465  97.4629 213.8949 0004925 111.9845 248.1912 15.17985649 25383

Verfolge HOTSAT-2 in Echtzeit mit AllMySat

Download on the App Store